User: anonymous   Login
Location: Hookston
(37.9413°N, 122.0527°W)
Time: 03:13:34
(UTC+00:00)
Language:

Tiangong - Orbit

View from above orbital plane
View from above orbital plane
View from above satellite
View from above satellite

Ground track
Ground track

The orbit data is extracted from the following two-line orbital elements,

1 48274U 21035A   24194.59675176  .00039286  00000-0  40613-3 0  9997
2 48274  41.4687 287.9835 0003760  22.0025 338.0976 15.63976255183070
Epoch (UTC): 12 July 2024 14:19:19
Eccentricity: 0.0003760
inclination: 41.4687°
perigee height: 373 km
apogee height: 379 km
right ascension of ascending node: 287.9835°
argument of perigee: 22.0025°
revolutions per day: 15.63976255
mean anomaly at epoch: 338.0976°
orbit number at epoch: 18307

The dashed part of the orbit path shows where the satellite is in the earth's shadow,  

DLR